When you browse on this site, cookies collect data to enhance your experience and personalize the content and advertising you see.
Visit our Privacy Policy to learn more. By continuing to use the site, you agree to this use of cookies and data.
  • In Czech Republic
  • List of Countries
  • For 7 days
  • Water Temperature
  • Satellite Maps
  • Weather Map
  • Weather Widgets
  • user-avatar
    Login

    Hourly Weather Menen

    Today, 17 December, Monday

    Time Temperature Precipitation Wind Pressure Humidity
    00:00 +2°C° 0 mm 6 mps 756 mmHg 94%
    01:00 +3°C° 0.3 mm 6 mps 757 mmHg 94%
    02:00 +3°C° 0.3 mm 6 mps 757 mmHg 93%
    03:00 +3°C° 0.3 mm 6 mps 757 mmHg 93%
    04:00 +3°C° 0 mm 5 mps 758 mmHg 92%
    05:00 +3°C° 0 mm 5 mps 758 mmHg 91%
    06:00 +3°C° 0 mm 5 mps 759 mmHg 90%
    07:00 +3°C° 0 mm 5 mps 760 mmHg 90%
    08:00 +3°C° 0 mm 5 mps 760 mmHg 90%
    09:00 +4°C° 0 mm 4 mps 761 mmHg 90%
    10:00 +5°C° 0 mm 4 mps 762 mmHg 87%
    11:00 +6°C° 0 mm 5 mps 762 mmHg 84%
    12:00 +7°C° 0 mm 5 mps 763 mmHg 81%
    13:00 +7°C° 0 mm 4 mps 763 mmHg 83%
    14:00 +7°C° 0 mm 4 mps 763 mmHg 85%
    15:00 +6°C° 0 mm 4 mps 764 mmHg 88%
    16:00 +6°C° 0 mm 4 mps 764 mmHg 89%
    17:00 +5°C° 0 mm 4 mps 765 mmHg 91%
    18:00 +5°C° 0 mm 4 mps 765 mmHg 93%
    19:00 +4°C° 0 mm 4 mps 765 mmHg 93%
    20:00 +4°C° 0 mm 4 mps 765 mmHg 92%
    21:00 +3°C° 0 mm 5 mps 766 mmHg 92%
    22:00 +3°C° 0 mm 5 mps 765 mmHg 93%
    23:00 +3°C° 0 mm 5 mps 765 mmHg 93%

    Tomorrow, 18 December, Tuesday

    Time Temperature Precipitation Wind Pressure Humidity
    00:00 +3°C° 0 mm 5 mps 765 mmHg 94%
    01:00 +3°C° 0 mm 5 mps 765 mmHg 94%
    02:00 +3°C° 0 mm 5 mps 764 mmHg 94%
    03:00 +3°C° 0 mm 5 mps 764 mmHg 95%
    04:00 +3°C° 0 mm 6 mps 764 mmHg 95%
    05:00 +3°C° 0 mm 6 mps 763 mmHg 95%
    06:00 +3°C° 0 mm 7 mps 763 mmHg 95%
    07:00 +4°C° 0 mm 7 mps 763 mmHg 94%
    08:00 +4°C° 0 mm 7 mps 763 mmHg 93%
    09:00 +4°C° 0 mm 7 mps 762 mmHg 91%
    10:00 +5°C° 0 mm 7 mps 762 mmHg 85%
    11:00 +5°C° 0 mm 8 mps 761 mmHg 79%
    12:00 +6°C° 0 mm 8 mps 760 mmHg 73%
    13:00 +6°C° 0 mm 8 mps 759 mmHg 72%
    14:00 +5°C° 0 mm 8 mps 759 mmHg 70%
    15:00 +5°C° 0 mm 8 mps 758 mmHg 69%
    16:00 +5°C° 0 mm 8 mps 757 mmHg 68%
    17:00 +5°C° 0 mm 8 mps 757 mmHg 68%
    18:00 +4°C° 0 mm 8 mps 756 mmHg 68%
    19:00 +5°C° 0 mm 8 mps 756 mmHg 68%
    20:00 +5°C° 0 mm 8 mps 756 mmHg 68%
    21:00 +5°C° 0 mm 8 mps 755 mmHg 69%
    22:00 +5°C° 0.4 mm 8 mps 755 mmHg 74%
    23:00 +5°C° 0.4 mm 8 mps 755 mmHg 78%

    Day after tomorrow, 19 December, Wednesday

    Time Temperature Precipitation Wind Pressure Humidity
    00:00 +5°C° 0.4 mm 8 mps 755 mmHg 83%
    01:00 +5°C° 0.3 mm 7 mps 755 mmHg 86%
    02:00 +5°C° 0.3 mm 6 mps 755 mmHg 89%
    03:00 +6°C° 0.3 mm 5 mps 755 mmHg 92%
    04:00 +6°C° 0 mm 5 mps 755 mmHg 93%
    05:00 +6°C° 0 mm 5 mps 756 mmHg 94%
    06:00 +5°C° 0 mm 5 mps 756 mmHg 94%
    07:00 +6°C° 0 mm 5 mps 756 mmHg 94%
    08:00 +6°C° 0 mm 5 mps 756 mmHg 93%
    09:00 +6°C° 0 mm 5 mps 756 mmHg 92%
    10:00 +7°C° 0 mm 6 mps 756 mmHg 88%
    11:00 +7°C° 0 mm 6 mps 756 mmHg 85%
    12:00 +8°C° 0 mm 7 mps 756 mmHg 81%
    13:00 +8°C° 0.1 mm 6 mps 756 mmHg 81%
    14:00 +8°C° 0.1 mm 6 mps 756 mmHg 82%
    15:00 +7°C° 0.1 mm 5 mps 756 mmHg 82%
    16:00 +7°C° 0.1 mm 5 mps 756 mmHg 84%
    17:00 +7°C° 0.1 mm 5 mps 756 mmHg 86%
    18:00 +6°C° 0.1 mm 4 mps 757 mmHg 87%
    19:00 +6°C° 0.3 mm 4 mps 757 mmHg 88%
    20:00 +5°C° 0.3 mm 4 mps 757 mmHg 89%
    21:00 +5°C° 0.3 mm 5 mps 757 mmHg 89%
    22:00 +5°C° 0.1 mm 5 mps 757 mmHg 90%
    23:00 +3°C° 0.1 mm 5 mps 757 mmHg 91%

    20 December, Thursday

    Time Temperature Precipitation Wind Pressure Humidity
    00:00 +3°C° 0.1 mm 5 mps 757 mmHg 91%
    01:00 +3°C° 0 mm 5 mps 758 mmHg 91%
    02:00 +3°C° 0 mm 5 mps 758 mmHg 92%
    03:00 +3°C° 0 mm 5 mps 758 mmHg 92%
    04:00 +3°C° 0 mm 5 mps 758 mmHg 92%
    05:00 +2°C° 0 mm 5 mps 758 mmHg 92%
    06:00 +2°C° 0 mm 5 mps 758 mmHg 92%
    07:00 +3°C° 0 mm 6 mps 759 mmHg 91%
    08:00 +3°C° 0 mm 6 mps 759 mmHg 91%
    09:00 +3°C° 0 mm 6 mps 759 mmHg 90%
    10:00 +4°C° 0.1 mm 7 mps 759 mmHg 87%
    11:00 +4°C° 0.1 mm 7 mps 759 mmHg 84%
    12:00 +5°C° 0.1 mm 8 mps 758 mmHg 80%
    13:00 +5°C° 0.4 mm 8 mps 758 mmHg 80%
    14:00 +5°C° 0.4 mm 8 mps 758 mmHg 80%
    15:00 +6°C° 0.4 mm 8 mps 758 mmHg 80%
    16:00 +6°C° 0.8 mm 8 mps 758 mmHg 81%
    17:00 +6°C° 0.8 mm 8 mps 758 mmHg 82%
    18:00 +6°C° 0.8 mm 7 mps 757 mmHg 83%
    19:00 +6°C° 0.7 mm 7 mps 757 mmHg 85%
    20:00 +7°C° 0.7 mm 6 mps 757 mmHg 88%
    21:00 +7°C° 0.7 mm 6 mps 757 mmHg 90%
    22:00 +7°C° 0.2 mm 5 mps 757 mmHg 91%
    23:00 +7°C° 0.2 mm 5 mps 757 mmHg 91%

    21 December, Friday

    Time Temperature Precipitation Wind Pressure Humidity
    00:00 +7°C° 0.2 mm 5 mps 757 mmHg 92%
    01:00 +7°C° 0.2 mm 4 mps 756 mmHg 93%
    02:00 +7°C° 0.2 mm 4 mps 756 mmHg 93%
    03:00 +7°C° 0.2 mm 4 mps 755 mmHg 94%
    04:00 +8°C° 0.6 mm 5 mps 754 mmHg 94%
    05:00 +9°C° 0.6 mm 5 mps 754 mmHg 94%
    06:00 +9°C° 0.6 mm 6 mps 753 mmHg 94%
    07:00 +10°C° 1.7 mm 7 mps 753 mmHg 91%
    08:00 +10°C° 1.7 mm 8 mps 752 mmHg 88%
    09:00 +11°C° 1.7 mm 9 mps 752 mmHg 85%
    10:00 +11°C° 0.8 mm 10 mps 751 mmHg 86%
    11:00 +11°C° 0.8 mm 10 mps 751 mmHg 87%
    12:00 +12°C° 0.8 mm 11 mps 750 mmHg 88%
    13:00 +11°C° 0.1 mm 10 mps 751 mmHg 82%
    14:00 +11°C° 0.1 mm 10 mps 752 mmHg 77%
    15:00 +10°C° 0.1 mm 9 mps 754 mmHg 72%
    16:00 +9°C° 0 mm 8 mps 755 mmHg 75%
    17:00 +9°C° 0 mm 7 mps 756 mmHg 77%
    18:00 +8°C° 0 mm 6 mps 757 mmHg 79%
    19:00 +8°C° 0 mm 7 mps 757 mmHg 81%
    20:00 +8°C° 0 mm 7 mps 757 mmHg 83%
    21:00 +8°C° 0 mm 7 mps 757 mmHg 85%
    22:00 +8°C° 0.1 mm 7 mps 757 mmHg 85%
    23:00 +8°C° 0.1 mm 7 mps 757 mmHg 85%

    22 December, Saturday

    Time Temperature Precipitation Wind Pressure Humidity
    00:00 +8°C° 0.1 mm 7 mps 757 mmHg 85%
    01:00 +9°C° 0.4 mm 8 mps 757 mmHg 85%
    02:00 +9°C° 0.4 mm 8 mps 757 mmHg 85%
    03:00 +10°C° 0.4 mm 9 mps 757 mmHg 85%
    04:00 +9°C° 0.1 mm 8 mps 757 mmHg 84%
    05:00 +9°C° 0.1 mm 7 mps 758 mmHg 83%
    06:00 +8°C° 0.1 mm 7 mps 758 mmHg 82%
    07:00 +8°C° 0 mm 7 mps 759 mmHg 81%
    08:00 +8°C° 0 mm 7 mps 760 mmHg 81%
    09:00 +8°C° 0 mm 6 mps 761 mmHg 80%
    10:00 +9°C° 0 mm 6 mps 761 mmHg 77%
    11:00 +9°C° 0 mm 6 mps 761 mmHg 75%
    12:00 +10°C° 0 mm 6 mps 762 mmHg 73%
    13:00 +10°C° 0 mm 5 mps 762 mmHg 77%
    14:00 +9°C° 0 mm 5 mps 762 mmHg 81%
    15:00 +10°C° 0 mm 4 mps 762 mmHg 85%
    16:00 +10°C° 0 mm 4 mps 762 mmHg 88%
    17:00 +10°C° 0 mm 4 mps 763 mmHg 90%
    18:00 +8°C° 0 mm 4 mps 763 mmHg 93%
    19:00 +8°C° 0.1 mm 4 mps 763 mmHg 94%
    20:00 +9°C° 0.1 mm 3 mps 763 mmHg 95%
    21:00 +9°C° 0.1 mm 3 mps 763 mmHg 95%
    22:00 +9°C° 0.1 mm 3 mps 763 mmHg 96%
    23:00 +9°C° 0.1 mm 3 mps 763 mmHg 96%
    Show more